Location: Newark
(46.3506°N, 1.8861°E)
Time: 00:59:27
(UTC+00:00)

N. Korean satellite - Visible Passes

Search period start: 18 October 2019 00:00
Search period end: 28 October 2019 00:00
Orbit: 455 x 508 km, 97.2° (Epoch: 16 October)

Date Brightness Start Highest point End Pass type
(mag) Time Alt. Az. Time Alt. Az. Time Alt. Az.
18 Oct 7.4 05:39:29 10° NNE 05:43:02 56° E 05:46:37 10° S visible
18 Oct 9.9 17:51:56 10° SW 17:54:20 18° W 17:56:45 10° NW visible
19 Oct 9.0 05:14:30 10° NE 05:17:39 28° E 05:20:49 10° SSE visible
20 Oct 10.1 04:50:04 10° NE 04:52:11 15° E 04:54:18 10° SE visible
21 Oct 10.4 18:10:53 10° WSW 18:11:58 11° W 18:13:03 10° WNW visible
22 Oct 7.9 05:31:42 10° NNE 05:35:12 45° E 05:38:45 10° S visible
22 Oct 9.5 17:43:44 10° SSW 17:46:27 22° W 17:49:12 10° NW visible
23 Oct 9.4 05:06:49 10° NE 05:09:48 23° E 05:12:46 10° SSE visible
23 Oct 7.9 17:17:43 10° S 17:21:00 44° W 17:24:21 10° NNW visible
24 Oct 10.3 04:42:43 10° ENE 04:44:17 12° E 04:45:52 10° ESE visible
25 Oct 6.9 05:49:02 10° NNE 05:52:42 77° E 05:56:24 10° S visible
25 Oct 10.1 18:02:09 10° WSW 18:04:02 14° W 18:05:54 10° WNW visible
26 Oct 8.4 05:23:55 10° NNE 05:27:20 37° E 05:30:47 10° SSE visible
26 Oct 9.0 17:35:33 10° SSW 17:38:30 27° W 17:41:32 10° NW visible
27 Oct 9.7 04:59:10 10° NE 05:01:54 19° E 05:04:37 10° SE visible
